Location: Darmstadt
(49.8706°N, 8.6494°E)
Time: 07:11:57
(UTC+01:00)

SeaSat 1 - Pass Details

Date: 31 October 2020
Orbit: 744 x 747 km, 108.0° (Epoch: 03 December)

Event Time Altitude Azimuth Distance (km) Brightness Sun altitude
Exits shadow 20:54:30 25° 290° (WNW) 1,477 4.4 -37.1°
Drops below altitude 10° 20:57:03 10° 314° (NW) 2,273 5.6 -37.5°
Sets 20:59:32 0° 324° (NW) 3,202 6.5 -37.8°
